Location: Fort Wayne
(41.1310°N, 85.1290°W)
Time: 12:36:33
(UTC-05:00)

Daily predictions for brighter satellites

Satellite Brightness Start Highest point End
(mag) Time Altitude Azimuth Time Altitude Azimuth Time Altitude Azimuth
BREEZE M DEB (TANK) 3.8 17:50:38 10° SW 17:54:26 65° SE 18:08:25 10° ENE
Cosmos 1400 Rocket 3.5 18:11:02 10° SSE 18:14:43 36° E 18:18:29 10° NNE
Cosmos 1603 4.3 18:13:59 10° SW 18:19:40 63° WNW 18:25:24 10° NNE
Cosmos 1726 2.3 18:16:40 10° N 18:20:14 49° E 18:23:47 10° SSE
Cosmos 1943 3.2 18:14:43 10° SSW 18:20:19 74° ESE 18:25:57 10° NNE
METEOR-M 4.2 18:15:33 10° SSE 18:20:47 60° ENE 18:26:03 10° N
NOSS 3-3 (A) 4.0 18:17:00 10° SSW 18:23:02 89° SE 18:29:41 10° NE
NOSS 3-3 (C) 4.0 18:17:06 10° SSW 18:23:08 89° SE 18:29:47 10° NE
Cosmos 1842 Rocket 4.0 18:19:01 10° NNW 18:23:27 68° W 18:27:48 10° S
SeaSat 1 4.2 18:19:28 10° S 18:24:02 38° WSW 18:28:38 10° NW
Cosmos 2084 3.7 18:23:16 10° NW 18:27:02 62° WSW 18:30:52 10° SSE
Cosmos 1076 Rocket 3.9 18:23:53 10° SSE 18:27:59 42° E 18:32:07 10° NNE
USA 116 4.0 18:26:10 10° NNE 18:30:22 85° ESE 18:35:04 10° SSW
CZ-2C R/B 3.7 18:25:38 10° NNE 18:30:23 76° ESE 18:35:02 10° S
Cosmos 44 4.4 18:30:20 10° SSE 18:33:27 20° ESE 18:35:33 14° ENE
EO 1 Del DPAF 4.0 18:32:52 10° NNE 18:36:21 32° E 18:39:49 10° SSE
Cosmos 2341 Rocket 4.1 18:31:00 10° N 18:37:17 90° W 18:43:35 10° S
SMAP 4.2 18:35:10 10° S 18:39:38 47° W 18:44:08 10° NNW
Meteor 2-10 3.9 18:35:06 10° N 18:40:08 73° E 18:45:13 10° SSE
Cosmos 1674 4.1 18:38:05 10° SSW 18:41:38 40° WNW 18:45:12 10° N
Okean 3 Rocket 3.6 18:40:00 10° S 18:44:30 70° E 18:49:01 10° NNE
Ariane Rocket 4.2 18:41:42 10° S 18:46:33 47° W 18:51:27 10° NNW
Cosmos 1766 Rocket 4.0 18:42:44 10° SSE 18:46:44 37° E 18:50:44 10° NNE
CZ-4 R/B 2.5 18:44:27 10° S 18:48:32 50° W 18:52:40 10° NNW
SPOT 3 Rocket 3.6 18:44:52 10° SSE 18:49:52 56° ENE 18:54:55 10° N
Landsat 4 3.6 18:46:31 10° NNE 18:50:16 70° ESE 18:53:58 10° S
Cosmos 2263 4.3 18:44:28 10° NNW 18:50:17 88° WSW 18:56:01 10° SSE
Cosmos 44 Rocket 4.2 18:50:25 10° S 18:54:20 27° ESE 18:55:59 22° E
SKYMED 2 3.6 18:51:16 10° NNE 18:55:37 85° WNW 18:59:57 10° SSW
OAO 3 Rocket 4.1 18:52:10 10° WSW 18:56:30 38° S 18:59:43 17° ESE
SL-14 R/B 3.3 18:55:49 10° S 18:59:48 87° W 19:03:48 10° N
Cosmos 2369 Rocket 3.1 18:54:59 10° NNW 19:00:28 52° WSW 19:05:57 10° S
Cosmos 2181 Rocket 4.4 18:55:56 10° SSW 19:02:20 70° W 19:08:47 10° N
Cosmos 1626 2.4 19:00:53 10° SSE 19:04:23 42° E 19:05:54 27° NE
YAOGAN 1 3.6 19:00:19 10° S 19:04:30 49° W 19:08:43 10° NNW
Cosmos 1300 2.8 19:02:26 10° N 19:06:16 76° W 19:10:04 10° S
Cosmos 1777 Rocket 4.2 19:04:37 10° N 19:09:39 45° ENE 19:14:41 10° SE
GEOS 3 Rocket 3.9 19:06:07 17° ESE 19:09:56 47° NE 19:15:04 10° NNW
Cosmos 1656 Rocket 3.6 19:11:02 10° NNW 19:16:27 59° ENE 19:21:54 10° SE
TSX-5 3.1 19:14:28 10° SSW 19:17:35 71° ESE 19:18:05 58° ENE
Cosmos 1315 Rocket 2.8 19:15:26 10° SSW 19:19:22 78° W 19:22:56 12° N
Cosmos 1943 Rocket 2.9 19:13:56 10° NNW 19:19:23 55° WSW 19:24:46 10° S
ERS-2 2.0 19:16:24 10° SSE 19:20:05 88° WSW 19:23:48 10° NNW
ALOS 3.1 19:19:00 10° S 19:23:33 52° W 19:28:07 10° NNW
Meteor 1-27 4.2 19:18:50 10° N 19:24:27 58° ENE 19:30:07 10° SSE
Cosmos 1346 Rocket 2.7 19:22:08 10° N 19:26:01 58° ENE 19:26:31 52° ESE
Cosmos 2218 Rocket 4.3 19:20:50 10° NNW 19:26:58 69° W 19:33:02 10° S
Cosmos 2098 Rocket 3.6 19:22:31 10° N 19:27:29 62° E 19:33:42 10° SSE
Meteor 1-11 4.1 19:22:03 10° S 19:27:35 70° E 19:33:12 10° NNE
Tiangong 1 2.8 19:31:09 10° WNW 19:32:19 23° WNW 19:32:19 23° WNW
Cosmos 1408 Rocket 4.0 19:36:19 10° SSW 19:40:33 60° W 19:44:19 13° N
COSMOS 2406 3.3 19:37:54 10° S 19:43:26 52° ESE 19:43:50 51° E
FengYun 1-2 T 4.2 19:37:53 10° SSE 19:43:33 85° WSW 19:49:12 10° NNW
ATLAS 2AS CENTAUR R/B 4.5 19:37:35 10° NW 19:44:27 35° WSW 19:50:49 10° S
H-2A R/B 3.2 19:41:16 10° S 19:44:59 60° W 19:48:47 10° NNW
Cosmos 2228 Rocket 3.7 19:42:14 10° N 19:52:48 - SSE 19:45:27 44° N
SL-24 R/B - RUBIN 2 3.5 19:47:44 10° NW 19:52:14 77° WSW 19:52:33 72° SSW
Cosmos 2058 3.8 19:56:04 10° SSW 19:58:51 41° SSW 19:58:51 41° SSW
Cosmos 1241 Rocket 4.3 19:55:00 10° NNW 20:01:12 66° ENE 20:01:24 66° ENE
Cosmos 2151 4.0 19:58:42 10° S 20:01:20 37° SSW 20:01:20 37° SSW
Cosmos 1743 Rocket 4.1 20:01:31 10° SSW 20:05:05 54° SW 20:05:05 54° SW
NOSS 3-4 (A) 3.9 20:00:24 10° NW 20:07:29 79° WSW 20:12:08 26° SSE
NOSS 3-4 (C) 3.9 20:00:30 10° NW 20:07:35 79° WSW 20:12:07 27° SSE
Meteor 2-15 4.3 20:02:33 10° S 20:08:40 82° E 20:09:49 61° NNE
Thor Agena Rocket 3.7 20:10:58 59° NNW 20:11:52 73° WNW 20:17:04 10° SSW
Cosmos 1821 Rocket 3.8 20:07:37 10° N 20:13:48 84° E 20:20:01 10° S
Cosmos 44 4.1 20:10:13 10° WSW 20:14:02 41° WNW 20:14:02 41° WNW
Nadezhda 3 Rocket 4.5 20:16:47 10° SSW 20:22:59 59° W 20:29:17 10° N
Cosmos 909 Rocket 4.1 20:24:30 10° NNW 20:30:38 73° NW 20:30:38 73° NW
